Location: Boulin
(43.2500°N, 0.1333°E)
Time: 00:18:32
(UTC+00:00)

Cosmos 1933 - Pass Details

Date: 24 March 2026
Orbit: 507 x 515 km, 82.5° (Epoch: 14 April)

Event Time Altitude Azimuth Distance (km) Brightness Sun altitude
Exits shadow 04:01:18 47° 173° (S) 686 3.6 -21.1°
Maximum altitude 04:02:18 78° 97° (E) 530 3.2 -20.9°
Drops below altitude 10° 04:06:07 10° 11° (N) 1,743 6.3 -20.3°
Sets 04:08:15 0° 10° (N) 2,633 7.2 -19.9°
